Wind_Speed
12 11 11 10 7 6 3 4 9 8 3 4 5 4 4 4 2 4 3 4 5 8 6 7 4 7 9 8 7 6 4 4 3 1 1 1 2 4 6 7 8 8 8 7 6 5 6 7 6
11 11 11 10 7 9 4 9 9 11 8 5 4 4 4 5 5 6 7 8 6 8 8 7 7 6 8 9 10 8 6 5 5 3 1 1 2 5 6 8 9 9 7 6 5 5 4 4 4
11 12 11 7 10 10 5 9 11 11 10 9 6 8 5 4 4 4 3 5 8 8 9 9 9 6 6 8 10 10 8 7 6 4 2 2 4 6 8 9 9 8 7 5 4 3 4 5 5
11 11 11 13 10 6 8 10 11 13 12 13 12 8 9 7 3 5 5 8 7 8 10 12 10 10 10 9 11 12 10 9 7 7 4 3 6 9 10 10 9 7 6 4 2 3 4 5 6
10 11 13 11 10 12 12 13 13 14 15 13 12 11 11 12 10 9 7 10 11 7 11 13 13 13 14 13 13 13 13 11 10 8 7 5 7 10 11 11 11 8 6 3 2 2 4 6 7
9 8 9 11 13 12 12 13 13 14 14 15 13 11 11 14 14 14 13 13 13 12 8 12 14 16 16 17 16 16 15 13 12 10 8 7 9 11 12 12 11 8 5 4 4 3 4 5 6
8 9 9 12 11 11 12 12 13 14 15 15 18 14 13 12 13 15 16 15 14 14 14 12 14 20 15 20 19 18 18 16 13 12 11 9 11 13 13 11 11 8 4 4 5 6 6 7 8
8 9 9 11 11 10 9 10 12 15 17 18 17 16 18 15 13 14 15 16 17 17 15 14 12 14 22 22 23 21 20 17 16 15 13 12 14 14 12 11 11 7 4 3 5 7 9 9 9
8 8 8 9 8 7 7 8 10 12 13 16 18 20 21 21 20 19 18 18 17 18 19 17 16 17 18 22 26 27 23 19 18 19 16 15 17 16 14 11 11 7 4 4 6 8 10 9 9
8 6 6 7 8 6 6 8 8 7 9 11 12 15 18 20 22 23 24 24 23 22 20 19 19 19 17 23 25 29 27 26 23 22 20 18 19 19 16 13 12 6 5 7 8 9 10 11 10
5 4 3 2 3 4 4 6 7 4 6 7 9 10 11 12 20 23 23 23 23 24 23 22 18 19 24 26 26 30 38 34 25 26 23 21 22 22 16 15 14 7 5 8 10 11 10 11 12
4 2 2 1 3 4 6 8 9 8 7 10 9 11 12 12 12 20 25 24 23 22 21 22 21 20 21 26 27 29 34 35 16 29 27 24 23 24 21 19 16 10 10 10 11 11 11 10 11
4 3 3 4 7 7 9 9 12 10 12 13 14 16 16 15 17 16 18 24 25 24 23 22 24 22 24 26 26 27 30 37 38 28 33 28 25 25 24 22 18 12 12 13 13 13 12 12 12
3 6 7 7 8 10 11 12 15 13 14 16 17 18 19 19 20 21 21 22 23 22 22 26 26 25 26 28 30 30 28 34 38 40 38 30 28 26 26 25 19 14 14 15 16 15 14 13 13
7 9 10 12 12 14 15 17 17 14 15 16 18 21 22 22 21 23 25 25 25 22 18 21 22 25 26 26 23 25 26 20 34 43 42 31 29 28 27 26 22 16 17 18 17 16 16 14 13
9 8 6 8 13 14 13 17 11 13 14 17 20 24 26 25 24 25 28 31 29 26 21 20 19 23 26 23 22 22 17 12 26 43 36 32 29 29 28 27 24 19 19 19 18 17 16 17 15
6 7 7 7 7 12 12 16 12 13 16 18 21 23 28 29 31 35 37 34 33 34 29 21 21 21 25 23 17 17 22 26 37 36 36 33 29 29 29 28 25 20 20 20 19 19 17 15 15
5 8 8 8 9 14 16 14 12 16 18 23 25 28 33 37 38 34 32 29 32 33 31 27 22 23 22 22 10 4 13 33 29 32 31 34 30 29 28 28 24 21 22 22 21 20 18 18 15
12 11 12 9 13 13 10 12 12 15 19 23 26 32 36 33 32 30 28 25 24 28 29 22 20 18 22 17 14 6 10 23 35 30 31 29 30 29 28 27 24 24 22 21 21 21 20 17 16
14 14 12 11 9 14 14 17 18 17 19 19 28 30 29 24 21 21 19 16 18 17 14 22 22 16 19 14 12 9 8 22 48 39 34 30 28 28 28 26 24 24 24 24 22 21 19 18 16
14 15 13 11 12 14 14 11 1 7 11 21 25 26 27 28 18 11 6 6 8 12 21 23 22 18 18 15 10 8 13 16 40 33 31 32 32 30 29 27 25 26 24 22 21 20 19 16 15
14 11 9 9 11 4 7 5 8 6 11 22 23 23 24 17 12 9 12 10 12 14 21 18 18 14 15 15 12 10 14 19 18 23 27 31 34 29 28 29 27 28 24 22 21 19 18 18 17
12 10 10 11 9 9 7 4 3 4 12 20 20 16 14 16 17 16 12 10 13 13 14 13 9 12 15 14 14 12 9 12 15 25 31 34 32 31 32 29 27 33 30 26 23 21 20 19 18
11 10 11 9 4 3 5 4 4 4 13 17 19 6 10 12 12 14 11 10 8 11 11 8 8 9 8 13 12 11 12 14 19 11 18 27 35 39 22 30 25 26 27 25 24 23 21 20 19
13 8 2 1 2 3 6 6 5 6 11 13 14 5 8 8 7 4 8 9 7 8 7 7 6 8 10 10 12 12 11 15 16 15 7 13 18 21 31 34 30 33 24 23 23 24 22 20 20
14 12 5 4 2 2 6 7 2 5 8 9 9 4 7 4 3 6 5 7 8 6 5 4 3 2 2 4 6 7 10 12 16 17 20 14 15 26 17 33 34 29 29 24 24 23 21 22 22
12 13 10 3 1 2 4 6 8 4 5 5 3 3 4 5 7 6 7 4 3 3 3 6 6 5 3 2 7 9 9 10 9 14 10 11 12 24 22 23 24 29 25 29 31 27 21 23 29
16 8 6 6 3 3 5 8 8 5 4 3 1 1 1 3 5 9 11 10 8 7 5 6 9 7 3 4 2 9 14 10 9 9 11 13 13 15 17 16 23 24 25 25 27 29 32 33 32
21 19 10 6 4 3 2 5 6 4 2 2 4 3 2 3 5 7 10 9 10 9 10 8 9 8 5 9 10 10 16 11 7 8 10 13 14 14 14 17 13 20 15 18 17 18 21 21 22
21 20 19 7 6 6 2 7 8 5 2 1 4 3 4 4 6 8 8 9 8 9 12 12 11 9 8 8 10 14 13 14 12 10 6 6 8 7 7 10 11 11 11 10 11 12 15 15 15
Wind_Direction
257 262 269 269 260 236 214 195 191 213 234 256 258 233 224 207 238 245 274 301 282 241 241 246 227 208 197 211 216 219 246 242 251 196 134 84 144 162 167 160 155 146 137 130 131 129 135 140 138
258 259 260 257 247 245 218 204 205 216 242 261 256 242 223 227 257 255 275 291 235 232 230 242 251 210 205 211 220 226 233 242 259 258 229 175 157 159 159 154 149 143 137 136 140 144 159 169 174
255 253 253 249 242 247 206 214 220 223 245 250 256 236 228 226 235 248 260 228 217 227 225 226 231 204 221 227 226 230 236 235 257 253 254 224 172 166 160 153 147 143 136 138 142 156 172 188 181
248 244 243 244 238 244 234 238 239 235 250 245 252 252 236 231 238 237 219 215 218 230 232 226 222 216 210 222 230 232 233 241 249 265 243 225 190 176 166 157 150 151 146 145 153 166 183 192 179
241 240 235 251 253 255 254 259 258 253 252 247 249 257 250 241 246 254 246 246 233 227 241 239 219 223 222 218 218 229 229 239 253 244 244 222 203 182 171 165 160 163 160 158 160 180 176 187 173
234 234 241 256 262 254 252 255 259 267 267 256 255 254 256 246 244 245 254 251 253 244 242 234 227 240 225 224 220 224 231 236 245 244 229 229 210 187 176 169 160 158 170 170 161 168 175 173 164
234 238 249 259 261 250 245 250 256 261 270 269 261 262 258 251 248 244 244 249 253 254 249 248 240 233 241 246 227 225 227 232 236 234 228 225 205 181 174 173 166 165 184 171 168 171 163 168 165
237 245 258 260 255 247 241 249 263 266 266 270 272 268 257 253 249 247 252 250 251 251 247 243 243 245 234 242 242 225 229 231 229 222 225 220 191 186 184 186 181 180 199 178 181 177 159 158 157
246 244 254 258 253 239 233 259 268 272 275 276 269 266 266 269 263 255 254 258 255 252 250 245 240 243 253 233 248 231 219 226 226 222 219 216 203 196 194 199 186 187 199 175 174 182 157 151 152
233 241 258 255 254 251 252 257 275 292 283 279 284 279 265 255 259 265 264 260 258 255 254 257 259 255 264 260 243 234 227 218 218 219 222 216 210 210 197 208 201 207 203 178 170 174 159 150 149
225 244 249 277 253 259 239 242 275 288 290 278 286 285 283 263 252 249 249 254 258 257 257 260 255 251 237 266 249 249 253 216 212 218 218 217 213 216 201 208 207 202 207 181 172 167 160 151 147
214 219 228 210 261 241 260 263 268 277 297 299 307 317 310 292 275 253 248 246 246 246 249 256 253 252 251 249 259 265 270 227 227 221 209 215 216 217 213 204 200 192 196 180 172 164 159 155 152
217 226 236 247 252 260 272 273 271 280 294 305 294 303 304 299 283 273 261 253 249 243 240 243 253 248 254 261 267 275 269 257 255 231 215 209 213 216 209 195 200 191 189 177 173 168 164 161 160
236 255 262 265 260 277 283 267 269 276 295 298 289 293 293 290 278 270 265 261 256 251 245 243 246 252 258 262 269 276 273 262 239 242 213 203 210 211 201 195 200 196 187 181 175 172 170 167 166
275 279 269 257 264 274 280 268 272 270 286 292 291 290 290 289 282 274 263 258 256 252 248 245 240 242 249 257 269 278 282 244 235 228 193 194 206 205 198 197 200 198 190 185 183 178 175 172 175
290 282 266 258 265 278 277 283 273 269 284 289 292 290 290 287 281 275 269 258 253 251 249 250 243 243 241 256 257 273 232 265 199 178 187 187 199 200 197 197 199 198 191 186 184 183 182 177 180
271 268 283 292 281 280 273 288 289 280 287 290 290 295 299 293 287 281 281 258 251 249 250 253 243 237 243 247 261 269 233 225 197 194 185 181 194 198 195 197 199 197 192 188 185 187 183 189 190
272 282 284 293 303 287 284 289 282 274 279 284 287 297 298 297 295 287 276 263 251 249 246 253 229 228 229 242 246 244 215 220 205 193 189 180 190 196 197 197 199 196 191 189 188 188 195 190 195
270 285 290 311 301 293 282 286 283 277 285 288 296 301 304 303 297 288 277 265 247 243 248 221 209 222 228 237 218 221 226 191 180 200 189 183 186 198 196 198 199 193 191 192 192 195 197 203 204
262 281 295 312 309 299 291 294 286 276 284 295 312 319 313 313 296 295 289 262 242 239 198 182 198 217 221 219 240 222 212 176 182 187 191 183 186 197 201 200 198 193 193 195 197 200 208 206 210
257 276 292 287 300 300 295 307 211 301 281 318 325 322 329 331 338 328 305 226 193 162 166 181 193 206 201 203 219 183 154 182 189 193 182 183 188 199 203 204 192 197 198 200 203 205 208 213 221
259 275 274 286 301 277 300 290 285 277 297 326 334 327 335 2 19 56 92 118 146 160 168 181 185 187 189 194 192 209 172 163 185 167 187 192 192 202 214 196 201 199 197 205 208 209 213 219 225
256 265 275 292 285 274 272 241 232 265 309 331 334 329 16 52 77 83 89 125 146 157 169 170 166 183 190 196 195 198 194 182 177 187 187 193 202 200 225 217 205 209 200 210 208 211 214 222 228
240 257 278 281 256 239 206 220 246 259 326 335 343 19 75 80 86 96 100 93 133 154 157 168 165 172 174 186 214 215 194 186 203 192 197 202 209 218 240 208 211 215 211 209 212 213 218 225 233
232 233 289 199 203 237 201 236 245 297 328 339 357 58 107 97 107 124 123 132 140 139 162 186 209 217 219 217 226 225 208 190 180 186 187 214 204 198 218 208 208 210 218 222 220 220 220 229 239
227 220 204 212 214 265 217 234 216 304 320 338 12 50 116 133 112 132 142 131 127 125 116 123 133 123 185 228 226 218 199 191 195 196 198 219 197 203 203 207 216 228 220 220 223 225 226 233 243
221 217 228 197 248 290 239 257 263 239 304 326 17 22 124 118 108 133 166 191 208 186 140 125 132 134 141 262 239 238 227 209 204 188 207 199 198 201 227 205 213 217 226 230 229 228 229 243 253
218 210 184 204 163 245 264 269 212 225 273 304 192 75 186 177 156 134 131 146 145 137 125 122 129 135 114 78 85 183 177 182 177 191 230 230 190 178 195 208 219 215 229 234 239 237 239 243 248
210 214 209 199 190 191 273 256 195 213 262 298 191 167 188 219 138 112 127 124 135 147 159 158 143 146 135 96 90 159 165 165 168 151 166 175 183 201 216 214 206 214 249 235 240 246 250 256 259
227 236 223 202 199 198 202 272 209 213 234 274 201 211 172 180 154 144 132 137 129 132 142 136 145 169 176 149 131 122 150 165 150 118 122 122 129 163 203 207 222 210 214 228 230 236 239 241 247
Height
3160 3162 3163 3164 3169 3165 3164 3166 3165 3166 3167 3168 3168 3168 3169 3169 3170 3175 3172 3172 3172 3173 3174 3174 3174 3174 3176 3177 3178 3179 3180 3181 3181 3182 3183 3183 3183 3184 3185 3186 3187 3187 3188 3188 3189 3189 3190 3190 3190
3158 3160 3161 3162 3164 3164 3163 3162 3163 3164 3165 3166 3167 3167 3168 3168 3169 3170 3171 3170 3171 3172 3173 3173 3173 3173 3175 3176 3177 3178 3179 3180 3181 3182 3183 3182 3183 3184 3185 3186 3187 3188 3188 3189 3189 3189 3190 3190 3190
3156 3158 3160 3161 3158 3163 3161 3161 3162 3163 3163 3164 3166 3166 3166 3168 3168 3168 3169 3169 3169 3170 3171 3172 3172 3173 3174 3176 3176 3177 3178 3179 3181 3182 3183 3183 3183 3184 3185 3187 3188 3188 3189 3189 3189 3189 3189 3190 3190
3155 3156 3159 3160 3157 3160 3159 3159 3160 3161 3162 3163 3164 3165 3166 3165 3166 3167 3167 3167 3168 3169 3170 3170 3170 3171 3172 3173 3175 3176 3177 3178 3179 3182 3182 3183 3184 3184 3185 3186 3187 3188 3189 3189 3189 3189 3189 3189 3190
3153 3153 3155 3156 3157 3157 3157 3157 3157 3158 3159 3160 3162 3162 3163 3163 3163 3163 3164 3165 3166 3166 3168 3169 3169 3170 3170 3171 3172 3173 3175 3177 3178 3179 3182 3182 3184 3184 3184 3185 3187 3188 3188 3188 3188 3188 3189 3189 3190
3151 3151 3152 3154 3155 3155 3155 3154 3155 3155 3156 3158 3159 3159 3159 3160 3160 3160 3161 3162 3163 3164 3164 3166 3167 3169 3169 3170 3171 3172 3173 3175 3176 3178 3180 3182 3182 3183 3184 3185 3186 3187 3187 3187 3187 3187 3188 3189 3190
3149 3149 3150 3152 3154 3153 3153 3153 3153 3154 3154 3155 3155 3156 3156 3157 3157 3157 3158 3159 3160 3161 3162 3163 3164 3166 3166 3169 3169 3169 3170 3172 3174 3176 3178 3179 3181 3182 3183 3185 3186 3186 3186 3187 3186 3186 3187 3189 3189
3147 3148 3148 3151 3152 3151 3151 3151 3151 3151 3151 3151 3152 3152 3153 3153 3154 3154 3154 3155 3156 3157 3158 3159 3160 3162 3164 3166 3168 3166 3168 3170 3172 3173 3176 3178 3179 3182 3183 3184 3185 3185 3185 3186 3186 3186 3187 3188 3189
3146 3147 3147 3149 3149 3149 3149 3149 3149 3149 3148 3148 3148 3147 3148 3149 3150 3151 3151 3151 3151 3152 3154 3156 3157 3159 3163 3163 3164 3163 3161 3166 3169 3171 3173 3176 3178 3180 3182 3184 3184 3184 3184 3184 3186 3187 3187 3188 3189
3145 3145 3146 3147 3147 3147 3147 3147 3146 3147 3145 3145 3144 3143 3143 3144 3144 3145 3146 3146 3147 3148 3149 3151 3153 3154 3159 3161 3159 3158 3159 3159 3161 3166 3170 3173 3176 3178 3181 3182 3184 3184 3183 3184 3185 3187 3187 3188 3189
3143 3144 3145 3146 3145 3145 3145 3145 3145 3144 3143 3142 3141 3140 3139 3139 3138 3139 3139 3141 3141 3142 3145 3146 3147 3149 3150 3155 3155 3156 3155 3153 3157 3159 3165 3170 3173 3175 3178 3180 3182 3183 3183 3183 3184 3185 3187 3188 3189
3142 3142 3144 3144 3144 3144 3144 3143 3142 3142 3141 3140 3139 3137 3135 3135 3134 3134 3134 3134 3136 3137 3139 3141 3143 3144 3145 3146 3146 3148 3142 3146 3153 3156 3160 3166 3170 3173 3176 3178 3179 3182 3182 3183 3184 3185 3186 3187 3189
3140 3142 3143 3143 3143 3143 3142 3141 3140 3139 3138 3136 3135 3133 3131 3131 3129 3129 3129 3129 3130 3131 3132 3135 3136 3137 3139 3140 3141 3142 3142 3142 3146 3149 3155 3161 3167 3170 3173 3175 3177 3179 3180 3181 3183 3184 3186 3187 3189
3139 3141 3141 3141 3141 3140 3140 3139 3137 3137 3135 3133 3131 3130 3128 3126 3125 3124 3124 3123 3124 3125 3127 3128 3130 3132 3132 3134 3135 3134 3134 3133 3135 3141 3152 3155 3163 3166 3170 3173 3175 3177 3179 3180 3181 3183 3185 3186 3188
3138 3138 3138 3139 3138 3138 3137 3136 3134 3134 3133 3130 3127 3126 3124 3121 3120 3119 3118 3117 3117 3118 3120 3122 3124 3125 3125 3127 3128 3126 3123 3125 3126 3132 3139 3148 3157 3161 3166 3170 3172 3174 3176 3178 3179 3181 3183 3185 3186
3136 3136 3136 3136 3136 3135 3135 3132 3132 3131 3130 3127 3125 3122 3119 3116 3113 3111 3109 3109 3110 3111 3114 3116 3118 3119 3120 3122 3123 3121 3120 3120 3118 3125 3131 3141 3151 3157 3162 3166 3169 3172 3174 3176 3178 3179 3181 3183 3185
3134 3134 3134 3134 3133 3132 3132 3129 3129 3128 3125 3122 3120 3117 3113 3109 3106 3101 3098 3098 3099 3102 3106 3110 3112 3113 3115 3117 3118 3116 3117 3119 3121 3123 3129 3135 3146 3152 3158 3162 3165 3169 3171 3173 3175 3177 3179 3182 3184
3132 3132 3132 3131 3131 3129 3127 3126 3125 3123 3121 3118 3115 3111 3106 3100 3094 3089 3087 3088 3091 3093 3098 3103 3107 3107 3110 3112 3114 3112 3114 3115 3120 3121 3128 3132 3142 3149 3155 3159 3162 3165 3168 3170 3172 3175 3177 3180 3182
3130 3130 3129 3129 3127 3125 3124 3122 3122 3120 3117 3114 3110 3106 3098 3091 3085 3079 3077 3079 3082 3085 3089 3096 3102 3104 3107 3109 3110 3109 3110 3110 3111 3120 3126 3130 3139 3145 3151 3154 3158 3161 3165 3168 3170 3172 3175 3178 3180
3127 3127 3126 3126 3124 3122 3120 3118 3117 3116 3113 3110 3106 3099 3090 3084 3077 3073 3071 3073 3077 3079 3085 3092 3099 3100 3102 3106 3106 3108 3106 3100 3105 3116 3123 3128 3136 3142 3147 3151 3154 3158 3162 3164 3166 3170 3173 3175 3178
3124 3123 3124 3124 3121 3119 3116 3114 3111 3113 3110 3107 3101 3093 3085 3077 3071 3069 3068 3070 3074 3078 3083 3090 3094 3096 3100 3103 3104 3105 3102 3102 3106 3111 3119 3126 3133 3139 3143 3147 3151 3155 3159 3161 3164 3168 3171 3174 3176
3120 3120 3120 3120 3119 3118 3116 3115 3110 3109 3107 3104 3097 3091 3084 3076 3072 3071 3071 3073 3077 3080 3084 3089 3093 3094 3097 3101 3103 3105 3102 3104 3109 3113 3121 3127 3131 3136 3137 3143 3147 3152 3155 3158 3161 3164 3168 3170 3174
3118 3117 3118 3117 3115 3115 3113 3114 3108 3107 3105 3101 3096 3091 3085 3080 3078 3077 3077 3078 3080 3083 3087 3089 3092 3095 3097 3100 3101 3103 3104 3106 3109 3115 3120 3126 3130 3133 3134 3141 3144 3149 3151 3156 3158 3160 3163 3167 3169
3114 3115 3115 3114 3113 3113 3110 3111 3106 3105 3103 3099 3093 3088 3087 3084 3083 3082 3082 3083 3084 3087 3088 3090 3092 3094 3096 3098 3099 3102 3104 3106 3110 3112 3116 3123 3125 3129 3127 3137 3141 3146 3150 3152 3155 3156 3159 3162 3165
3111 3112 3113 3114 3113 3108 3107 3108 3102 3101 3100 3097 3093 3089 3088 3087 3086 3086 3086 3086 3088 3089 3090 3091 3093 3094 3095 3097 3098 3099 3102 3106 3109 3112 3115 3119 3120 3124 3127 3133 3138 3141 3143 3148 3150 3153 3155 3158 3161
3107 3109 3108 3111 3110 3106 3105 3102 3100 3099 3098 3095 3093 3091 3089 3087 3087 3087 3088 3088 3089 3090 3091 3091 3092 3094 3096 3097 3099 3099 3100 3103 3106 3110 3115 3116 3117 3120 3124 3128 3132 3136 3140 3142 3146 3149 3151 3153 3155
3103 3104 3106 3106 3107 3105 3100 3098 3097 3096 3095 3094 3092 3091 3089 3088 3087 3087 3088 3089 3090 3091 3091 3092 3092 3094 3096 3096 3098 3099 3100 3102 3106 3110 3111 3113 3114 3118 3122 3124 3128 3132 3135 3138 3140 3143 3145 3148 3150
3099 3101 3102 3103 3105 3102 3097 3094 3092 3093 3092 3091 3091 3090 3090 3088 3087 3086 3087 3088 3090 3091 3092 3093 3094 3094 3095 3095 3094 3097 3100 3104 3107 3108 3111 3113 3113 3115 3119 3122 3125 3128 3131 3134 3136 3138 3139 3140 3141
3095 3095 3097 3099 3099 3097 3096 3090 3089 3090 3089 3089 3089 3089 3090 3088 3087 3086 3087 3087 3089 3090 3091 3092 3095 3096 3096 3096 3095 3097 3101 3104 3105 3106 3109 3111 3112 3115 3117 3120 3122 3125 3127 3128 3130 3132 3134 3134 3136
3090 3091 3092 3093 3095 3095 3095 3089 3087 3088 3087 3087 3087 3087 3088 3089 3088 3088 3088 3089 3089 3090 3091 3092 3095 3096 3098 3099 3098 3098 3100 3103 3106 3108 3111 3113 3114 3115 3119 3119 3121 3123 3124 3126 3127 3128 3129 3129 3129